Wind_Speed
13 11 10 9 8 7 7 6 5 6 7 8 9 8 9 9 9 10 10 10 10 10 11 12 13 14 15 16 16 16 15 14 13 12 10 9 10 9 7 10 12 12 12 12 12 11 10 7 5 4 3 4 4 4 6 9 10 10 10 10 11 11 10 9 8 7 4 3 2 3 3 3 3 4 2 1 1 1 2 3 5 5 4 6 8 9 9 10
16 14 12 11 10 9 8 7 6 6 6 7 8 8 8 8 9 9 10 10 10 9 10 11 13 14 14 15 16 15 14 14 12 11 10 8 9 10 9 10 13 14 14 14 12 11 10 8 6 5 5 5 5 7 9 10 11 9 10 11 11 11 10 8 8 8 6 4 2 3 2 2 3 3 0 2 2 1 1 2 4 4 3 5 7 8 9 10
19 17 15 13 12 10 9 9 8 6 6 7 8 8 8 8 8 9 9 9 9 9 10 11 12 13 14 15 15 15 14 13 12 11 10 8 8 10 10 11 14 16 15 13 12 10 10 10 8 6 5 7 7 10 10 9 10 9 11 11 10 10 9 8 7 7 7 5 4 6 4 3 1 1 3 2 3 3 2 4 3 3 3 5 6 7 8 9
21 20 18 16 14 12 11 10 9 8 7 7 7 8 8 8 8 8 9 9 9 8 9 10 11 12 13 14 15 15 13 12 11 10 10 8 9 9 11 13 14 17 16 14 12 11 12 11 9 8 8 9 9 10 11 10 11 11 12 10 10 9 8 9 9 7 6 5 4 6 5 5 6 6 5 3 4 6 2 3 1 4 5 6 6 8 8 9
22 21 21 19 17 15 13 12 10 9 8 7 7 8 8 8 8 8 8 8 9 8 8 9 10 11 13 13 14 14 13 12 10 9 9 9 10 9 10 12 14 15 15 14 12 13 15 12 10 10 9 9 9 11 10 9 9 11 13 11 11 10 9 9 8 7 4 3 3 6 5 5 7 7 6 5 5 6 4 2 1 2 4 5 6 7 9 10
22 22 22 21 20 18 16 14 12 11 10 9 8 8 8 8 8 8 8 8 8 8 8 9 10 11 12 13 13 13 13 11 10 9 9 10 11 9 9 10 13 13 14 15 12 13 16 12 11 10 9 8 8 10 10 8 8 11 13 12 11 11 10 9 8 7 3 3 3 4 6 6 6 7 7 6 5 5 5 3 2 3 4 4 5 7 10 9
25 23 22 22 22 20 19 17 15 13 11 11 9 9 8 8 8 8 7 7 8 7 7 8 9 10 11 12 12 12 12 11 9 8 8 10 11 9 8 9 12 12 13 15 10 10 15 13 12 12 10 10 7 8 9 8 9 11 13 12 12 11 11 10 9 8 5 6 6 6 6 5 6 6 7 7 6 6 6 7 5 5 5 3 3 7 10 8
27 26 24 23 23 22 21 20 18 16 14 12 11 10 9 8 8 8 7 7 7 7 7 7 8 8 9 11 11 11 11 10 8 8 8 9 10 9 8 7 10 11 11 13 9 9 14 14 13 11 10 10 9 7 6 9 9 9 13 13 11 11 11 10 10 10 9 8 8 8 7 6 7 6 6 7 7 7 6 8 8 7 8 5 4 7 7 5
28 28 26 25 24 24 23 22 21 19 17 14 13 12 10 9 8 8 7 6 6 7 6 6 7 7 8 9 10 11 10 9 8 7 7 9 10 9 9 7 8 9 10 11 11 11 14 17 15 12 12 12 13 6 4 7 7 7 12 13 12 11 11 10 10 10 9 10 10 10 9 8 9 8 8 8 8 7 5 6 9 9 9 8 7 7 4 1
29 28 28 27 26 25 25 23 22 21 19 17 15 14 12 11 9 8 8 7 6 6 6 6 6 6 7 8 9 10 9 8 7 7 7 8 9 9 9 8 8 9 12 11 13 14 15 16 16 13 13 13 13 6 3 5 3 5 11 12 11 11 12 12 11 10 10 13 14 13 11 10 11 10 10 9 8 8 6 6 7 8 9 8 8 7 4 2
30 29 28 28 27 26 26 25 24 23 22 20 17 15 14 13 11 9 8 7 6 6 6 6 5 5 6 6 8 8 8 7 7 6 6 8 9 9 10 10 10 10 11 10 12 15 16 15 16 13 11 12 12 8 6 8 8 9 11 12 13 13 14 14 11 10 12 13 14 13 13 12 12 12 10 10 9 9 9 8 6 6 8 9 10 11 9 7
29 30 30 28 27 27 26 26 25 24 23 22 20 17 16 15 13 11 9 8 6 6 6 6 5 4 5 5 6 7 7 7 6 5 6 8 9 9 10 10 10 10 10 9 9 13 15 15 16 15 13 12 12 10 7 7 13 15 14 12 13 13 14 14 13 12 13 13 13 14 13 12 12 12 11 11 10 10 10 9 7 7 8 8 9 10 10 10
27 29 30 29 28 27 27 26 25 25 25 24 22 19 17 16 15 12 10 9 7 6 6 6 5 4 4 4 4 5 6 6 5 5 5 7 8 9 9 9 10 10 10 9 9 11 14 15 15 15 14 12 13 13 7 7 15 18 16 14 12 12 14 14 13 13 12 12 13 14 13 11 12 12 12 11 11 12 11 10 10 10 8 8 8 9 9 10
26 27 29 30 30 28 27 27 26 26 26 25 24 21 19 18 16 14 12 10 8 6 6 6 5 4 3 3 3 3 4 4 4 4 4 5 7 8 8 8 9 9 10 11 11 11 12 13 13 13 14 15 17 17 13 10 13 9 8 16 16 12 13 12 10 11 11 11 13 13 12 12 13 13 13 13 13 12 12 12 12 11 11 10 9 9 9 10
26 26 27 29 30 29 28 27 26 26 26 26 25 24 21 19 18 16 14 12 10 7 6 6 6 5 3 3 2 1 2 3 3 2 4 5 6 7 8 8 8 9 10 11 12 12 12 12 12 12 12 15 17 21 22 9 8 4 4 14 14 12 12 10 10 9 10 10 11 13 12 12 13 13 13 12 13 12 12 12 11 11 11 12 12 11 10 9
27 27 26 28 29 30 29 28 27 26 26 26 26 26 23 21 19 18 16 14 11 9 7 7 7 6 4 3 3 1 1 1 2 1 3 4 6 7 8 9 9 9 10 11 12 12 12 11 12 12 10 12 13 15 18 2 9 7 10 6 11 10 10 7 10 9 10 9 9 12 10 12 12 12 13 12 12 13 12 11 10 12 13 13 12 12 11 9
25 27 27 27 28 29 30 29 28 26 26 26 26 27 25 23 21 19 18 15 13 11 8 7 8 7 5 5 5 3 1 0 0 0 1 3 6 7 9 10 9 10 10 11 12 12 12 11 12 12 13 15 14 13 10 2 5 3 7 4 8 9 9 4 7 8 9 8 8 11 9 11 12 11 12 12 12 12 11 11 11 14 15 14 14 12 11 10
21 25 27 28 27 28 29 29 29 27 26 26 26 27 27 25 22 21 20 17 15 12 9 9 8 8 7 6 5 4 3 2 1 1 1 2 4 6 8 9 10 11 11 12 12 11 12 13 12 13 18 21 16 13 4 5 5 6 4 5 5 11 13 6 6 7 7 7 7 10 9 10 11 10 11 11 11 10 10 11 13 14 15 15 15 14 12 11
18 21 25 28 28 27 28 29 29 29 27 26 26 27 27 27 24 22 21 19 17 15 12 10 8 9 9 6 5 5 5 3 3 3 2 1 3 5 8 9 10 10 10 13 13 11 11 12 14 16 24 18 10 3 9 16 16 11 7 8 5 4 11 10 6 6 6 7 7 9 9 9 9 10 10 10 10 10 10 12 13 13 15 16 16 13 13 13
18 19 22 26 29 28 28 28 29 29 28 27 27 27 28 28 26 23 21 21 19 17 14 11 9 9 8 7 7 6 6 5 4 4 3 2 3 4 7 9 9 10 8 9 12 11 7 7 11 14 10 7 19 13 9 13 16 10 8 9 4 3 9 13 5 2 5 7 7 8 7 8 9 10 10 10 10 9 10 10 11 12 14 17 15 13 13 14
18 19 20 23 27 29 28 28 29 28 28 28 28 28 28 28 27 24 22 23 21 18 16 13 11 10 8 9 8 7 7 6 6 5 5 4 4 4 7 8 9 11 8 6 10 10 5 5 7 6 3 15 15 7 7 10 13 10 14 13 6 4 9 13 5 3 5 6 6 7 6 7 8 10 11 12 12 10 10 10 11 12 14 15 14 13 14 13
18 19 19 21 24 28 29 29 28 28 28 28 29 29 27 27 28 25 24 23 22 21 18 15 13 11 10 10 9 9 9 8 8 7 6 6 5 5 6 8 8 10 9 9 11 11 7 4 3 2 3 8 7 6 8 8 9 9 16 18 6 4 11 15 8 3 4 5 7 8 7 7 8 11 13 14 14 14 13 12 12 12 13 13 12 13 14 14
18 18 19 20 22 26 28 29 28 28 28 28 29 29 26 26 28 27 25 24 23 22 20 17 15 12 11 11 11 11 10 9 9 8 8 7 6 6 6 7 8 8 10 12 11 11 11 5 5 4 6 7 7 8 8 7 7 8 10 9 2 7 9 12 8 2 3 5 7 8 9 8 8 11 12 13 15 16 17 17 15 12 12 13 11 10 13 15
18 18 18 19 21 23 27 29 28 28 28 28 29 29 27 26 27 27 26 25 24 22 21 19 16 14 12 12 12 12 11 10 10 9 8 8 8 8 7 8 9 8 10 10 9 10 10 7 9 6 7 6 8 9 8 7 10 13 9 3 7 7 10 12 9 4 5 6 6 7 9 7 7 9 10 11 13 14 15 18 20 16 14 14 12 10 11 13
18 18 18 19 20 22 25 28 29 28 28 29 28 29 28 27 25 27 27 26 24 23 23 21 18 16 13 12 13 14 12 11 10 10 9 9 10 10 8 8 9 10 10 9 11 11 5 6 9 8 7 7 8 8 9 16 16 12 12 12 13 10 10 12 7 4 8 9 8 8 8 8 8 6 5 8 11 13 13 15 19 19 17 15 14 13 12 12
17 17 17 18 19 21 23 27 28 28 29 29 28 28 28 27 26 26 27 26 25 25 23 21 20 18 14 13 14 14 13 13 12 10 10 10 10 11 9 10 11 10 10 10 13 12 4 4 10 8 8 9 9 6 10 23 18 5 14 18 17 12 7 6 5 3 5 8 12 12 8 8 12 8 3 8 13 14 14 14 16 18 19 17 15 15 14 15
16 16 17 17 18 19 22 25 27 28 29 28 28 27 27 28 26 26 27 25 24 25 23 20 21 18 16 15 14 14 15 14 13 11 12 12 11 12 11 11 12 9 10 11 10 7 5 8 9 7 9 9 8 4 4 19 15 3 17 17 13 9 7 5 3 3 3 7 13 17 14 8 11 14 9 14 18 17 16 16 16 16 17 17 16 16 16 17
16 16 16 16 17 19 21 24 25 27 27 27 28 27 26 28 26 26 26 23 24 26 23 21 20 19 18 16 14 16 15 10 11 13 13 13 12 14 13 12 12 10 9 9 7 5 7 9 8 9 11 8 4 6 11 13 8 6 13 14 8 6 6 5 3 1 3 6 7 11 15 11 10 18 20 21 22 18 16 16 17 18 18 17 17 16 18 18
16 16 16 16 17 18 20 22 24 26 27 28 28 27 27 28 27 27 26 24 26 28 25 22 21 20 19 17 16 16 14 11 13 13 13 14 14 15 15 12 13 13 11 12 11 9 10 12 9 12 14 10 8 18 17 17 15 5 4 8 6 5 5 4 3 2 4 6 5 5 9 11 14 22 25 23 18 13 13 15 17 20 20 19 18 17 17 17
16 15 15 16 17 18 19 21 22 24 26 27 27 27 27 28 27 26 25 25 28 28 25 23 22 22 20 18 16 15 15 17 16 12 12 14 15 15 14 11 12 13 11 14 14 9 9 12 10 11 15 14 14 15 11 13 13 5 4 7 5 3 5 4 4 7 5 4 8 7 5 11 16 21 23 22 18 13 14 17 19 22 23 23 22 20 19 18
16 15 15 16 17 18 18 19 21 23 25 26 27 28 28 27 28 27 23 23 26 27 26 24 23 22 20 19 17 15 17 18 16 12 12 15 15 15 16 13 13 12 9 10 11 8 7 10 10 10 14 15 11 8 8 9 9 7 6 6 1 3 8 8 8 12 8 5 8 7 5 12 15 19 23 23 21 20 19 19 19 21 25 26 24 24 23 21
16 15 15 15 17 18 18 19 21 22 24 25 27 28 28 28 28 26 23 23 24 25 25 25 24 22 19 19 18 16 18 17 15 15 15 15 15 15 16 15 13 11 6 3 7 8 7 8 11 12 14 14 11 10 9 6 8 7 4 4 2 2 8 11 11 13 12 10 8 6 11 14 14 20 22 20 22 24 26 26 23 21 23 25 25 27 29 25
16 15 15 15 17 18 18 19 19 21 22 24 27 28 28 29 27 24 23 22 22 22 23 25 25 22 19 19 20 18 17 17 15 17 17 15 15 16 16 15 14 13 8 4 5 6 8 9 11 10 13 15 15 12 6 4 10 6 3 6 7 6 9 11 13 13 13 13 9 10 16 15 16 24 23 21 24 28 29 29 26 23 23 23 24 28 31 28
16 15 15 15 17 18 18 18 18 20 21 23 27 28 29 29 26 23 21 19 17 14 20 27 26 23 22 20 20 18 17 18 16 16 18 16 16 17 17 18 16 14 11 8 7 4 9 12 13 11 12 14 14 15 14 14 12 7 7 12 11 10 11 11 12 12 11 14 11 11 17 18 19 25 27 26 27 29 29 28 27 26 26 24 24 27 29 29
17 16 14 14 17 18 18 18 18 19 20 24 27 29 30 27 22 22 20 14 11 8 16 28 27 23 23 20 20 20 17 17 17 16 17 17 17 17 17 17 16 16 15 11 10 10 11 11 18 19 15 11 11 15 19 15 7 7 12 10 9 12 11 9 12 14 13 14 14 12 15 20 23 26 30 30 28 27 26 26 27 28 27 25 25 27 29 30
17 16 14 14 17 18 18 18 18 19 21 24 27 29 29 24 21 22 23 16 14 14 16 25 27 24 23 21 20 21 18 18 18 17 17 17 16 17 17 17 17 17 16 12 8 12 14 12 23 23 15 16 16 17 18 14 11 13 10 5 15 21 16 13 15 15 13 12 14 13 13 21 27 29 32 30 27 26 24 25 26 27 27 26 27 27 28 29
17 16 15 14 16 18 18 18 18 19 21 24 28 29 27 27 23 20 26 28 23 20 15 19 25 23 23 21 18 20 18 18 19 17 17 16 15 18 16 14 16 15 17 16 11 14 16 13 24 20 7 17 21 18 15 14 17 16 8 8 21 21 13 15 16 14 12 10 13 13 12 21 29 31 32 31 31 31 28 27 27 28 29 28 27 26 27 29
17 16 15 14 16 18 18 18 18 20 22 24 27 26 27 32 27 19 27 35 29 22 17 16 19 18 20 17 15 19 18 15 18 17 15 15 15 17 12 10 15 17 21 23 17 17 18 13 15 12 5 14 20 15 14 14 15 15 14 18 21 14 9 13 13 13 12 11 15 13 11 20 29 29 31 33 35 35 31 28 29 31 31 30 27 25 26 29
17 17 16 14 16 18 18 18 18 20 22 23 25 25 27 34 32 25 29 35 32 25 22 18 16 16 20 16 13 21 18 14 17 17 14 14 13 14 12 14 21 24 24 26 21 16 16 13 9 6 7 11 12 9 9 8 12 17 16 15 13 12 13 14 14 16 16 15 16 14 12 22 30 30 31 34 36 39 37 31 30 30 30 31 29 27 27 29
18 18 16 14 15 18 18 18 18 19 20 22 24 26 31 34 33 29 29 31 33 28 23 22 17 14 19 19 17 20 19 15 16 15 14 16 15 15 16 18 24 24 23 25 27 23 16 13 14 12 10 6 4 5 4 4 7 14 11 8 9 9 12 13 14 17 17 16 17 16 16 25 31 30 33 35 36 40 41 35 31 30 31 32 31 30 30 30
18 19 17 14 15 17 18 18 17 18 19 21 24 28 35 36 29 23 24 29 35 33 28 29 26 18 18 20 22 21 19 16 17 14 13 17 19 18 17 19 22 24 25 23 25 25 18 12 13 14 13 9 7 13 14 16 17 17 15 15 17 16 14 14 14 13 14 14 15 16 18 26 34 33 33 35 35 38 40 39 36 34 34 33 31 30 31 32
19 19 16 14 15 16 18 17 17 18 18 21 25 27 33 37 32 22 20 26 34 33 31 33 33 26 18 18 22 22 19 19 19 18 15 17 19 16 18 25 24 23 25 21 18 22 22 19 18 16 16 15 12 14 17 19 21 22 22 20 19 18 16 16 17 16 18 19 20 20 20 28 36 34 32 33 34 37 39 40 39 37 36 34 31 30 31 33
19 17 14 14 14 15 18 17 16 17 16 19 24 28 31 35 38 32 23 24 29 28 29 33 33 26 18 17 22 21 21 21 20 20 18 18 20 16 18 26 24 21 20 14 15 23 25 24 24 23 22 21 15 10 15 18 20 23 22 18 20 19 15 18 21 22 23 23 23 23 23 29 35 34 34 34 35 37 38 38 38 37 37 35 32 32 32 34
19 16 15 16 15 15 18 17 17 18 18 19 24 30 33 34 39 40 29 24 26 26 29 35 35 26 15 15 19 18 19 22 19 19 19 21 26 24 21 20 19 20 19 17 22 26 22 22 24 23 22 21 17 17 19 17 13 14 13 12 17 20 20 23 23 23 25 24 25 26 25 31 35 35 36 37 36 36 36 37 36 35 36 36 36 36 35 34
18 18 18 19 16 16 18 19 19 19 20 22 23 26 31 31 33 36 32 27 26 26 26 29 31 27 15 12 17 18 20 24 23 21 22 23 27 29 29 23 16 20 25 26 27 23 17 20 24 23 22 19 17 19 22 19 11 9 10 12 11 14 22 28 24 22 25 25 27 29 28 31 35 36 37 37 36 35 36 37 35 33 35 36 38 39 37 37
20 20 20 20 18 17 17 19 19 17 17 20 22 23 27 26 25 28 30 29 29 30 28 20 19 24 19 13 19 22 21 24 25 22 23 26 28 24 23 22 20 24 26 23 23 22 20 22 23 24 24 22 21 23 25 24 20 16 17 18 15 16 24 31 28 25 26 27 29 31 31 32 34 37 39 38 37 37 36 35 33 33 35 37 38 38 38 38
22 22 20 19 18 17 18 20 20 18 18 20 21 22 24 22 21 22 25 28 29 31 30 23 15 21 23 20 21 22 21 22 24 22 19 25 29 22 19 21 24 23 21 20 23 24 24 23 22 25 27 24 23 24 25 27 26 27 28 28 28 28 28 31 33 33 30 29 30 31 34 34 34 35 37 38 40 40 38 36 36 37 37 37 37 38 38 39
23 22 20 19 17 17 20 22 23 23 23 22 22 22 23 23 22 21 22 27 30 29 30 30 25 20 23 23 21 21 22 22 24 23 19 22 28 22 19 23 24 22 21 24 26 26 24 25 24 25 28 26 22 23 27 29 29 32 34 32 32 32 30 31 35 37 36 34 31 32 34 36 35 35 36 38 40 40 39 39 40 40 39 38 37 38 39 39
22 22 21 19 17 17 20 22 23 23 23 23 22 22 23 25 25 23 22 26 31 31 31 33 29 22 21 21 20 22 24 23 23 24 22 24 27 23 19 22 24 24 25 25 27 28 26 26 26 27 28 27 25 26 29 30 28 31 34 33 31 32 33 33 34 36 38 37 34 33 33 34 35 35 37 38 38 38 40 41 41 41 39 37 37 38 40 40
21 22 23 20 18 19 20 21 22 22 22 22 22 20 21 23 24 25 23 23 28 32 33 33 28 23 23 22 20 24 27 25 24 25 25 25 24 21 21 23 24 26 26 25 28 30 28 26 28 29 29 28 27 29 31 30 29 31 34 33 31 31 32 33 33 35 37 36 35 34 33 34 36 37 37 36 35 37 39 40 41 42 40 38 37 38 39 40
21 22 23 22 21 21 20 20 19 19 20 22 22 22 23 24 25 27 27 27 27 28 32 33 26 21 24 25 21 23 26 26 24 23 23 22 21 20 22 23 23 23 24 25 27 30 30 29 28 29 30 30 29 29 28 27 27 31 34 32 30 30 30 30 32 35 35 34 34 33 32 34 37 38 37 36 36 38 40 40 41 42 42 40 39 39 39 40
21 22 23 23 23 21 20 18 17 18 21 23 24 26 27 27 29 31 32 33 30 25 26 29 26 21 24 26 24 23 25 25 23 23 23 19 18 21 24 24 24 24 23 23 25 29 31 30 28 28 30 30 30 29 27 26 28 31 33 33 32 32 31 29 30 34 35 35 34 32 32 35 37 38 37 38 39 39 40 40 41 42 42 42 41 40 39 39
Wind_Direction
255 257 260 264 268 273 282 293 307 321 329 331 334 342 343 342 346 352 0 358 356 359 1 2 1 3 4 7 11 13 15 18 22 26 28 36 46 56 91 120 119 121 125 127 136 144 148 153 152 154 138 87 56 62 52 27 30 34 25 36 40 38 43 49 56 61 72 85 135 182 185 158 194 232 216 218 251 166 175 201 211 223 219 220 223 217 212 211
255 255 256 259 263 267 273 281 293 306 318 325 329 337 340 339 341 348 356 355 354 357 0 2 2 3 5 8 12 14 18 21 24 31 34 44 57 63 84 111 115 115 116 120 130 137 140 141 131 134 126 99 59 48 59 33 19 34 39 38 46 41 33 43 53 48 42 37 343 286 230 172 189 212 194 23 347 300 206 165 180 213 232 231 228 220 215 210
255 254 254 256 257 262 267 273 281 292 305 315 322 330 335 336 335 342 352 353 351 353 359 1 2 3 5 8 12 15 19 24 28 36 40 51 69 72 80 99 109 108 112 120 125 129 131 131 126 129 110 84 61 44 50 46 27 32 40 38 44 43 37 38 38 41 42 36 344 309 298 307 322 48 26 11 318 283 184 131 160 241 248 230 233 225 212 206
255 255 254 254 255 257 260 266 273 281 291 302 312 321 328 332 330 336 348 351 348 350 356 0 2 3 6 9 12 16 20 25 29 40 48 56 71 79 86 99 109 110 116 121 127 132 127 126 124 119 92 64 63 56 42 39 37 32 32 36 44 40 40 43 33 32 31 34 3 316 303 318 347 19 14 12 338 320 359 89 199 263 245 218 223 231 218 207
256 255 254 253 253 254 256 259 265 273 280 288 299 310 319 325 325 330 341 349 346 345 352 358 2 3 6 8 13 17 21 28 30 43 55 60 71 83 95 106 113 117 121 121 134 135 123 125 119 108 93 70 65 66 48 37 43 36 29 32 40 33 36 47 51 50 18 15 9 300 307 339 357 11 359 11 4 338 0 56 201 268 261 225 206 221 223 208
256 256 256 254 253 253 254 254 258 264 271 277 286 297 307 316 319 323 335 346 343 341 347 354 1 4 7 8 13 19 23 30 32 45 59 65 71 82 100 110 114 122 124 124 140 134 122 123 112 110 102 80 69 65 53 45 52 41 32 31 34 28 31 42 53 67 51 20 21 318 347 356 360 9 352 357 15 355 351 356 337 332 308 259 207 208 215 203
255 256 256 256 254 252 252 252 253 256 261 269 275 284 294 305 311 316 328 340 339 338 340 350 1 4 7 8 13 19 25 31 34 47 61 72 75 81 96 108 118 126 129 128 140 134 128 124 109 116 104 77 70 55 39 45 52 44 38 31 27 24 28 32 35 53 56 33 27 16 13 358 9 15 348 347 6 4 346 339 329 335 335 285 233 219 203 182
253 254 255 256 257 254 252 251 251 252 255 259 265 274 282 292 300 308 319 332 335 333 332 344 357 3 8 9 12 19 26 32 36 48 64 77 82 85 91 104 118 130 135 130 137 145 140 125 110 121 107 84 80 54 21 40 27 22 39 34 27 23 26 28 28 40 45 38 30 28 30 19 30 30 0 355 359 360 351 337 322 328 348 348 313 258 210 156
252 252 252 254 256 256 254 251 250 250 251 253 257 263 272 280 289 298 308 321 328 328 326 335 352 2 8 9 12 17 25 34 40 49 66 81 89 95 98 100 108 124 127 125 140 145 133 121 117 123 115 99 87 55 358 44 12 3 40 37 33 29 27 28 31 38 37 37 36 32 32 28 35 43 32 19 5 359 3 352 332 328 340 344 326 285 241 159
251 251 251 251 253 255 255 253 251 249 249 251 251 254 262 270 279 286 297 310 318 323 319 325 345 357 4 11 14 16 24 35 44 51 64 80 92 102 109 111 112 121 123 135 149 130 115 115 115 117 119 109 90 57 3 74 54 31 41 37 39 35 34 36 33 39 42 43 46 43 37 36 39 42 41 33 17 6 13 15 351 334 332 322 311 310 328 337
250 250 250 250 250 252 254 254 252 250 248 248 249 250 253 260 269 275 286 297 307 315 314 315 330 350 1 9 14 18 24 33 46 55 66 79 86 96 107 115 120 124 128 145 146 122 114 113 110 107 107 106 98 90 78 83 81 54 40 40 41 35 37 40 35 39 49 47 49 51 39 37 42 37 36 37 31 19 14 14 5 349 340 320 308 320 332 327
251 249 249 249 248 249 252 253 252 250 248 246 246 246 247 253 259 266 275 283 295 305 307 305 312 340 352 3 15 19 26 34 45 59 75 84 88 90 99 111 121 125 126 130 127 122 119 112 112 107 95 95 100 96 78 84 84 54 37 45 39 34 34 33 37 38 45 48 49 54 42 31 37 37 34 36 34 28 16 8 12 7 346 330 319 320 317 308
252 250 248 248 247 247 248 251 252 250 248 246 244 244 244 246 250 257 265 272 282 292 298 297 296 317 335 353 11 19 30 36 44 63 80 92 96 94 99 107 117 121 121 117 112 116 116 115 115 109 106 100 88 87 94 96 72 37 22 37 31 32 34 26 39 43 36 46 53 53 46 38 39 39 40 40 37 33 25 16 15 10 351 343 336 326 314 305
252 251 249 248 247 246 246 248 250 250 248 246 243 241 241 242 245 249 255 262 269 278 289 286 284 291 310 332 347 17 30 38 45 64 83 96 101 101 103 102 106 111 115 115 111 112 114 115 112 110 112 105 93 82 69 55 45 14 353 18 10 6 14 12 35 48 39 43 55 54 49 48 47 43 41 43 40 36 33 25 18 12 359 356 352 338 321 310
252 251 249 248 247 246 245 245 247 248 247 245 242 239 238 238 240 243 248 254 258 266 278 278 277 271 276 306 312 9 22 40 49 63 88 96 103 105 104 102 104 105 110 114 115 118 114 115 114 113 114 118 118 81 58 29 338 354 38 6 346 329 340 4 27 43 48 39 49 53 48 48 48 49 46 44 44 39 38 31 21 14 5 3 4 354 335 317
252 250 249 248 246 246 245 244 245 246 246 245 242 239 236 235 236 238 241 246 251 256 263 269 269 262 257 275 275 272 351 55 59 70 93 102 105 106 106 106 107 107 113 117 118 119 116 119 112 105 105 111 120 78 61 43 302 14 74 359 297 300 322 6 24 29 51 40 46 52 47 49 46 48 45 40 40 37 37 31 24 21 12 12 16 7 351 332
255 250 248 247 246 245 245 244 244 244 244 244 242 239 234 232 233 234 237 240 245 247 252 261 263 260 252 250 256 258 248 151 124 134 112 115 109 111 112 110 113 113 116 119 120 122 117 113 109 111 101 78 78 79 63 27 322 351 90 37 304 322 328 352 21 19 44 37 46 52 45 47 41 42 43 38 36 30 27 26 24 23 14 19 30 21 1 350
263 254 248 245 245 244 243 243 243 242 242 242 242 239 234 231 229 231 233 234 239 242 245 251 256 258 249 244 250 247 238 217 195 202 178 136 120 119 118 117 122 120 123 123 118 121 119 114 113 100 67 40 39 64 21 255 174 218 171 81 356 346 329 328 24 7 28 35 40 50 45 41 33 33 36 34 35 25 16 22 26 22 14 23 34 26 15 7
272 261 251 245 243 242 242 241 242 241 240 239 240 239 234 229 227 228 230 231 235 237 239 243 251 253 243 239 240 235 233 215 204 206 206 189 141 131 130 130 129 125 130 128 122 125 131 133 126 88 52 18 316 278 253 220 184 207 189 123 92 30 299 305 23 358 358 16 27 45 41 37 31 29 30 22 24 19 10 15 23 22 15 24 30 26 27 21
276 269 258 248 242 240 239 239 240 240 239 237 238 238 234 229 226 225 227 229 231 233 236 238 244 249 243 235 231 234 232 217 215 207 210 213 164 152 145 140 138 133 135 141 136 124 128 159 132 94 78 225 237 232 223 196 182 191 122 93 47 70 273 294 0 353 333 352 14 36 24 25 27 26 26 13 7 7 10 5 10 22 17 21 25 22 30 28
277 273 265 253 244 239 237 237 237 238 238 235 236 237 234 230 226 224 225 227 228 231 233 233 237 244 241 231 228 235 236 224 221 210 211 213 186 181 159 152 153 145 150 165 140 115 119 172 121 65 203 201 209 205 172 161 166 159 100 82 10 344 289 297 325 336 335 349 10 18 2 6 14 18 18 7 358 357 8 358 354 16 20 19 19 13 24 29
279 275 268 258 247 239 235 235 235 235 236 234 234 235 233 231 227 223 224 226 225 227 229 230 233 238 238 232 227 232 236 229 224 213 210 213 201 198 176 163 161 157 158 147 129 112 89 63 63 321 225 163 159 157 152 143 141 132 94 82 58 289 281 295 311 346 344 353 10 5 1 1 1 16 13 360 355 352 0 356 345 5 14 15 15 9 16 20
279 277 270 261 250 240 235 233 233 232 234 233 232 233 232 231 227 222 224 226 225 225 227 229 230 234 236 231 227 229 234 231 226 218 211 218 214 201 195 176 165 171 163 145 141 122 93 16 299 203 159 143 164 154 142 149 123 87 69 68 295 247 253 281 298 352 339 349 8 351 348 356 359 16 11 359 358 349 353 350 339 355 4 3 14 15 13 13
279 279 273 263 253 242 234 231 231 230 231 232 231 231 231 230 227 223 223 225 225 224 225 228 228 231 232 229 228 227 231 233 230 224 210 217 223 205 203 193 172 182 178 158 158 136 129 213 231 168 146 157 165 147 133 121 63 22 1 315 256 228 205 231 269 328 353 354 8 350 340 343 359 15 3 355 1 351 348 341 331 347 360 351 2 14 11 10
278 279 275 265 254 243 235 230 230 229 229 230 230 230 229 229 227 224 223 223 225 224 224 226 227 229 229 227 227 226 230 233 231 229 217 214 221 214 208 199 183 184 187 166 151 140 125 217 203 167 166 169 155 142 112 87 50 346 296 284 270 250 225 224 250 340 11 346 330 352 346 312 325 5 357 336 350 347 338 329 325 338 348 343 350 359 359 6
277 279 275 266 255 244 236 230 228 227 227 227 229 229 227 228 227 224 223 223 225 223 221 225 228 228 226 224 225 226 230 234 230 226 220 215 218 222 212 198 196 190 187 180 167 165 151 179 182 172 176 167 136 105 108 103 81 325 267 277 268 244 240 240 253 314 2 320 307 333 340 299 305 318 349 333 337 339 327 322 325 331 335 333 338 344 346 355
277 278 275 267 255 245 236 231 228 226 226 225 226 227 225 225 226 224 223 223 226 223 218 222 226 226 226 225 225 226 228 232 229 223 221 216 216 222 221 212 208 199 196 190 183 200 198 165 166 171 183 165 109 47 159 132 110 254 238 242 246 225 231 241 248 277 326 314 308 316 324 334 305 295 327 337 327 327 321 320 324 327 328 324 328 334 334 343
276 277 274 266 254 244 237 232 228 226 225 223 223 223 222 223 224 223 221 222 226 222 216 218 223 226 229 228 227 228 231 237 234 228 223 217 215 217 219 221 209 200 203 183 167 229 221 175 168 185 175 128 81 249 225 184 172 247 226 214 221 220 229 245 231 233 317 299 278 284 305 330 300 287 308 316 311 313 312 313 320 322 323 321 326 330 325 333
274 276 273 264 253 244 237 232 228 226 223 221 220 218 219 220 221 222 220 220 223 221 215 215 220 224 227 227 226 228 231 234 233 229 225 219 217 216 217 222 214 204 194 179 183 224 221 193 190 198 174 145 221 231 218 206 206 219 213 199 209 220 231 259 254 266 288 277 261 257 281 291 281 281 291 296 299 308 304 309 318 316 316 318 323 323 316 321
272 276 271 262 252 243 238 233 230 226 223 220 217 215 216 217 219 220 219 221 224 222 215 212 220 224 224 224 224 226 225 227 230 228 229 227 220 219 220 224 223 215 203 197 208 236 232 210 204 203 195 196 225 233 216 210 215 229 235 209 214 280 288 286 276 281 293 314 323 333 288 274 279 284 286 290 304 321 316 317 321 316 317 318 318 319 316 316
270 274 270 260 250 242 237 233 229 226 223 219 215 214 214 215 217 216 215 220 225 225 217 214 219 221 223 224 222 223 224 227 231 227 230 229 224 225 222 222 223 213 207 211 222 243 236 216 208 204 217 225 235 244 229 223 231 238 244 234 202 332 295 286 285 289 303 316 308 314 261 254 271 282 285 291 311 330 326 322 325 322 320 316 312 316 318 316
267 272 269 258 247 240 235 232 229 225 222 217 214 213 212 213 215 212 210 213 220 225 224 220 220 219 220 223 221 222 226 229 228 225 229 227 226 229 223 225 221 196 190 231 236 246 241 224 222 217 224 230 229 231 230 252 265 249 261 289 301 325 284 273 271 275 280 284 295 297 260 255 267 271 275 289 307 317 316 318 323 319 315 313 313 321 323 321
263 270 269 256 244 239 235 232 230 227 223 217 213 212 211 213 212 208 206 211 218 227 230 222 217 218 219 221 222 221 225 229 223 224 231 227 225 226 220 224 213 188 196 234 232 270 289 270 258 250 242 235 226 221 209 259 272 274 317 284 265 266 266 266 270 273 279 286 291 280 269 271 274 273 283 301 304 306 311 315 317 312 312 316 318 324 325 325
260 267 268 255 242 236 234 233 229 227 223 217 213 210 210 211 209 200 195 206 218 226 235 227 217 216 216 219 224 221 224 230 225 225 229 226 226 223 219 221 210 198 208 191 168 237 282 275 268 262 255 243 228 222 212 211 227 240 246 247 247 252 256 263 270 274 283 286 281 277 285 289 279 278 290 299 300 305 308 307 308 307 310 315 317 321 323 325
256 263 267 255 240 234 233 232 228 227 221 217 213 209 208 206 200 193 185 199 223 218 233 231 220 215 216 217 223 222 223 229 227 228 230 229 227 222 222 220 213 216 215 180 160 204 222 241 249 244 243 241 218 225 229 214 209 244 234 237 251 241 238 248 255 254 255 264 269 267 277 278 272 277 287 295 300 302 298 300 305 305 307 313 317 320 322 322
252 259 264 254 238 231 232 231 228 226 220 217 212 208 206 195 187 193 183 183 216 219 226 231 220 215 215 216 223 225 222 225 228 226 227 232 229 225 224 217 216 220 206 171 155 209 206 222 247 246 253 259 233 224 231 201 192 233 221 229 254 236 228 239 246 254 261 271 281 280 279 279 279 282 287 294 297 293 293 299 301 303 308 312 316 318 317 314
248 254 261 254 237 230 230 230 228 225 220 217 212 207 199 184 179 194 188 182 196 200 205 229 224 214 215 214 218 228 225 223 230 228 225 231 228 227 224 214 225 220 193 185 185 204 200 213 246 247 262 272 247 225 237 219 212 230 204 217 249 243 245 263 263 271 281 280 277 276 283 287 288 288 288 289 289 290 297 299 299 304 305 306 311 312 309 308
245 249 255 252 237 228 229 229 228 226 221 217 212 204 193 186 186 198 198 192 191 180 176 217 225 209 214 213 207 227 225 211 223 226 218 221 224 225 209 191 232 228 200 200 201 207 204 203 248 253 214 255 249 223 232 237 231 236 224 230 249 254 257 267 273 279 281 279 277 280 285 280 278 279 282 285 286 290 294 295 299 303 300 302 308 309 304 304
242 245 250 250 237 228 228 229 228 227 222 217 209 198 192 196 199 202 202 198 194 180 169 192 210 201 204 195 194 230 228 195 218 230 208 206 221 224 199 190 224 230 214 208 205 214 217 203 227 243 198 236 262 247 241 261 268 267 259 251 263 280 272 259 259 263 265 269 275 279 279 272 271 272 276 280 285 289 292 295 303 306 303 304 309 309 305 303
240 243 247 248 238 229 227 229 228 227 223 216 206 194 189 197 206 209 208 202 198 194 181 180 191 204 209 191 186 229 234 193 210 233 203 192 205 208 204 215 230 231 222 215 213 218 220 210 217 226 223 235 286 262 207 150 248 261 258 233 221 247 272 272 270 273 275 280 284 285 283 277 275 276 279 284 289 293 296 303 312 312 305 304 308 311 309 306
239 242 244 245 238 228 226 229 228 226 222 212 205 197 192 195 204 216 220 208 200 204 201 187 182 192 214 209 192 209 232 210 202 220 207 201 215 211 200 215 230 229 222 217 218 222 221 218 223 231 247 258 249 245 221 186 201 227 228 227 227 228 242 255 259 268 274 275 276 279 282 281 279 281 285 289 291 292 295 301 307 308 304 303 307 310 308 306
238 240 243 245 240 228 225 227 225 223 219 211 205 200 199 200 203 211 222 210 204 211 213 201 192 185 195 221 207 197 219 225 207 207 207 210 229 237 221 216 222 230 227 216 216 225 222 218 218 219 232 240 240 262 258 226 220 238 247 255 258 251 252 255 248 250 259 261 259 260 265 273 276 280 284 286 286 288 293 298 302 304 304 305 308 308 306 304
238 240 243 246 243 230 224 224 224 222 217 214 207 198 199 206 209 213 213 203 202 210 212 207 202 190 182 218 220 200 208 223 215 206 208 217 227 234 232 224 221 231 232 211 215 230 228 227 227 222 223 228 225 244 263 249 240 253 262 271 268 258 253 255 252 253 260 266 269 269 268 270 274 278 280 281 283 288 294 297 300 302 304 306 308 305 303 301
238 238 237 240 239 229 223 220 219 214 206 208 210 204 205 210 214 217 216 205 200 206 211 208 205 197 186 202 208 203 212 218 215 209 208 222 230 228 232 229 216 221 222 209 221 233 235 237 240 235 231 236 236 236 249 260 266 269 264 256 265 272 267 258 259 267 271 273 276 276 274 273 275 280 283 286 289 292 295 296 299 302 304 305 305 303 303 301
236 233 231 232 231 225 221 218 218 218 209 206 209 212 216 219 218 218 218 212 202 202 210 211 209 204 193 192 196 203 218 211 204 206 205 215 229 232 236 235 217 220 223 222 230 236 236 238 242 241 237 237 242 242 246 251 255 257 244 229 247 278 276 267 267 272 277 280 280 280 280 280 282 285 287 289 291 293 295 296 299 301 301 301 302 303 304 301
233 233 233 230 225 222 221 219 221 225 221 213 210 213 220 226 224 218 218 215 207 205 204 198 211 215 205 207 205 200 211 213 205 205 208 218 226 223 224 225 220 226 231 233 239 240 237 240 244 247 244 238 241 246 250 254 254 253 254 250 247 258 270 276 278 275 276 281 281 281 281 281 284 288 290 292 293 293 294 296 297 297 297 297 299 300 300 298
230 231 233 232 224 217 218 219 217 218 219 216 215 216 217 218 218 214 216 215 212 214 207 184 189 219 215 217 213 197 203 215 213 210 210 223 230 217 205 217 224 230 236 237 239 240 242 244 246 251 253 251 253 257 258 259 261 263 264 268 270 272 274 279 282 282 281 282 281 281 281 281 282 284 288 291 293 295 298 298 297 297 297 298 299 298 298 297
231 231 232 235 230 221 217 216 213 213 215 214 214 216 213 208 207 206 211 212 208 214 214 196 188 202 211 216 217 210 210 211 214 219 214 224 235 223 209 223 228 230 236 239 240 243 247 248 247 250 255 255 257 263 262 259 262 268 272 274 277 278 276 274 278 283 285 284 281 278 278 281 283 283 285 288 292 297 299 298 297 298 299 300 300 299 298 298
232 232 232 233 234 233 228 223 219 216 218 218 215 216 214 207 205 204 207 211 210 211 212 205 199 195 199 211 219 221 221 213 214 222 219 225 238 233 224 233 236 234 238 244 247 246 246 250 253 254 256 257 258 262 267 268 268 271 273 274 274 275 276 275 275 276 278 281 281 277 277 279 280 281 283 287 292 294 294 295 297 297 299 300 300 299 299 299
231 232 231 229 227 230 231 228 223 218 218 221 218 216 215 211 208 207 206 209 213 215 211 205 205 203 199 204 214 218 220 217 215 220 221 224 235 238 235 241 245 243 241 243 249 251 249 250 254 257 260 263 264 266 271 275 276 273 272 274 274 273 273 274 273 271 272 275 277 277 278 279 278 280 284 288 289 290 291 294 296 297 299 299 298 297 297 297
230 230 231 229 227 227 229 228 226 221 219 220 220 216 211 209 209 209 209 208 206 213 215 206 203 211 209 208 216 221 223 224 220 222 226 226 231 237 237 239 244 247 246 245 248 253 255 254 256 261 264 264 266 269 272 275 275 272 273 275 274 271 270 270 270 271 273 274 275 276 278 279 281 284 287 289 289 289 291 294 296 299 300 300 299 298 297 297
230 229 228 228 227 228 229 229 228 225 222 220 219 218 212 209 211 210 211 212 203 202 214 210 203 215 219 214 216 221 225 228 226 229 231 226 227 236 238 240 244 246 249 251 252 255 258 258 257 260 264 266 268 270 272 270 268 270 275 276 273 272 273 272 270 273 275 276 276 277 278 280 283 286 288 289 289 290 293 296 299 299 298 299 299 298 297 297
Height
5920 5921 5921 5921 5920 5920 5920 5920 5920 5919 5919 5918 5917 5916 5916 5915 5914 5914 5913 5912 5911 5910 5909 5908 5906 5905 5903 5902 5900 5899 5897 5895 5893 5892 5891 5890 5889 5888 5887 5886 5886 5887 5889 5890 5891 5892 5894 5895 5895 5897 5898 5899 5900 5900 5901 5902 5901 5900 5902 5902 5902 5901 5902 5902 5901 5901 5901 5901 5901 5901 5902 5902 5902 5901 5899 5899 5902 5904 5903 5904 5905 5904 5905 5906 5906 5907 5907 5908
5919 5920 5920 5920 5920 5920 5920 5919 5919 5919 5918 5918 5917 5916 5916 5915 5914 5914 5913 5912 5911 5910 5909 5908 5907 5905 5904 5902 5901 5899 5898 5896 5894 5893 5892 5891 5890 5890 5888 5888 5887 5888 5890 5891 5892 5893 5894 5895 5896 5898 5899 5900 5902 5902 5901 5903 5902 5901 5902 5903 5903 5903 5903 5903 5903 5903 5903 5903 5903 5903 5903 5902 5902 5902 5900 5900 5902 5904 5903 5904 5904 5903 5905 5906 5906 5907 5907 5907
5918 5918 5919 5919 5919 5919 5919 5919 5919 5918 5918 5918 5917 5916 5916 5915 5914 5914 5913 5912 5911 5910 5909 5908 5907 5906 5905 5903 5901 5900 5898 5897 5895 5894 5893 5892 5892 5891 5890 5889 5889 5890 5891 5892 5894 5895 5895 5896 5897 5899 5900 5901 5902 5902 5902 5903 5903 5901 5902 5903 5904 5904 5904 5904 5904 5904 5903 5905 5905 5904 5903 5902 5903 5903 5903 5902 5902 5903 5905 5904 5904 5903 5904 5906 5907 5908 5907 5907
5916 5917 5917 5918 5918 5918 5918 5918 5918 5918 5918 5917 5917 5916 5916 5915 5914 5914 5913 5912 5911 5910 5910 5908 5907 5906 5905 5904 5902 5900 5899 5897 5896 5895 5894 5894 5893 5892 5891 5891 5891 5891 5892 5893 5895 5896 5896 5897 5898 5900 5901 5902 5903 5903 5903 5904 5904 5903 5903 5904 5905 5905 5905 5904 5904 5904 5903 5904 5904 5903 5904 5903 5904 5904 5904 5904 5904 5904 5905 5906 5906 5904 5904 5906 5907 5908 5907 5907
5915 5915 5916 5916 5916 5917 5917 5917 5917 5917 5917 5917 5916 5916 5915 5915 5914 5914 5913 5912 5911 5910 5910 5909 5908 5907 5906 5904 5903 5901 5899 5898 5897 5896 5895 5895 5894 5894 5893 5892 5892 5892 5892 5894 5896 5896 5896 5898 5899 5900 5901 5903 5904 5904 5905 5906 5905 5904 5904 5904 5904 5905 5905 5906 5906 5905 5904 5905 5905 5904 5905 5905 5904 5905 5904 5905 5905 5904 5905 5906 5907 5906 5905 5905 5905 5907 5908 5906
5913 5913 5914 5914 5915 5915 5916 5916 5916 5916 5916 5916 5916 5916 5915 5915 5914 5913 5913 5912 5911 5910 5910 5909 5908 5907 5906 5905 5904 5902 5900 5899 5898 5897 5896 5896 5896 5895 5894 5894 5894 5894 5894 5895 5897 5897 5897 5899 5899 5901 5902 5903 5904 5906 5907 5906 5906 5905 5906 5905 5905 5905 5905 5905 5907 5907 5906 5906 5906 5905 5905 5905 5905 5905 5904 5905 5905 5904 5904 5905 5906 5906 5906 5905 5904 5906 5907 5905
5911 5911 5912 5913 5913 5914 5914 5914 5915 5915 5915 5915 5915 5915 5915 5914 5914 5913 5913 5912 5911 5910 5910 5909 5908 5907 5906 5905 5904 5903 5901 5900 5899 5898 5897 5896 5897 5897 5896 5896 5896 5896 5896 5896 5899 5898 5897 5898 5900 5901 5902 5904 5905 5907 5908 5907 5907 5906 5906 5906 5905 5905 5905 5905 5906 5906 5906 5905 5905 5905 5905 5905 5906 5906 5904 5904 5905 5904 5904 5903 5904 5906 5907 5906 5904 5905 5906 5904
5908 5909 5910 5911 5911 5912 5912 5913 5913 5914 5914 5914 5915 5915 5914 5914 5913 5913 5912 5912 5911 5910 5910 5909 5908 5908 5907 5906 5905 5904 5902 5901 5900 5899 5898 5897 5897 5898 5897 5897 5897 5897 5897 5897 5899 5900 5897 5898 5900 5902 5902 5904 5906 5909 5909 5908 5909 5908 5906 5906 5906 5906 5906 5906 5906 5906 5905 5905 5905 5906 5906 5906 5906 5907 5904 5903 5904 5905 5905 5903 5902 5904 5906 5906 5904 5904 5904 5903
5905 5906 5908 5909 5909 5910 5910 5911 5912 5912 5913 5913 5913 5914 5914 5913 5913 5912 5912 5912 5911 5910 5910 5909 5909 5908 5907 5906 5905 5904 5903 5902 5901 5900 5899 5898 5898 5899 5899 5898 5898 5897 5898 5898 5899 5900 5899 5899 5901 5902 5902 5904 5907 5910 5910 5908 5909 5910 5908 5907 5907 5907 5907 5907 5907 5906 5906 5906 5906 5907 5906 5906 5906 5906 5905 5904 5904 5905 5906 5904 5902 5902 5904 5905 5907 5906 5903 5903
5902 5903 5905 5906 5907 5907 5908 5909 5910 5910 5911 5912 5912 5912 5913 5913 5912 5912 5911 5911 5911 5910 5910 5909 5909 5908 5907 5907 5906 5905 5904 5903 5902 5901 5900 5899 5898 5899 5900 5900 5900 5899 5899 5900 5901 5900 5900 5900 5901 5903 5903 5904 5908 5911 5911 5910 5911 5910 5909 5908 5908 5908 5908 5908 5908 5907 5907 5907 5907 5907 5906 5906 5906 5906 5906 5906 5905 5904 5905 5905 5904 5903 5903 5905 5908 5907 5903 5901
5899 5901 5902 5903 5904 5905 5906 5906 5907 5908 5909 5910 5910 5911 5911 5912 5912 5911 5911 5911 5910 5910 5909 5909 5909 5908 5908 5907 5906 5905 5905 5904 5903 5902 5901 5900 5899 5900 5901 5901 5901 5901 5901 5902 5902 5901 5901 5902 5902 5904 5904 5905 5907 5909 5910 5910 5911 5911 5910 5910 5910 5909 5908 5908 5908 5908 5908 5908 5908 5907 5906 5907 5906 5906 5906 5906 5905 5904 5904 5905 5906 5905 5904 5905 5905 5904 5901 5899
5896 5897 5899 5900 5901 5902 5903 5904 5905 5906 5907 5908 5909 5909 5910 5910 5911 5910 5910 5910 5910 5910 5909 5909 5909 5908 5908 5907 5907 5906 5905 5905 5903 5903 5902 5901 5900 5900 5901 5902 5902 5902 5902 5903 5902 5902 5902 5903 5904 5904 5905 5906 5907 5908 5911 5911 5911 5911 5912 5911 5911 5911 5910 5910 5910 5909 5909 5909 5908 5908 5907 5907 5907 5907 5906 5905 5905 5905 5904 5904 5906 5906 5906 5905 5903 5902 5900 5899
5893 5894 5895 5897 5898 5899 5901 5901 5902 5904 5904 5905 5907 5907 5908 5909 5909 5910 5910 5909 5909 5909 5909 5908 5908 5908 5908 5907 5907 5906 5906 5905 5904 5904 5903 5902 5901 5901 5901 5902 5902 5902 5902 5902 5903 5903 5903 5904 5905 5905 5906 5907 5907 5909 5912 5912 5910 5912 5913 5912 5912 5912 5911 5911 5912 5911 5911 5910 5910 5909 5909 5908 5908 5908 5907 5906 5906 5905 5905 5904 5904 5905 5905 5904 5903 5902 5901 5901
5890 5891 5892 5894 5895 5896 5898 5899 5900 5901 5902 5903 5904 5905 5906 5907 5908 5909 5909 5908 5908 5908 5908 5908 5908 5908 5908 5908 5907 5907 5906 5906 5905 5904 5904 5903 5902 5902 5902 5902 5903 5903 5903 5903 5903 5904 5905 5906 5906 5907 5907 5907 5909 5910 5912 5912 5913 5916 5917 5915 5914 5913 5913 5913 5913 5913 5912 5911 5911 5910 5910 5910 5909 5909 5908 5908 5907 5906 5905 5905 5904 5904 5904 5902 5902 5902 5902 5901
5887 5888 5889 5890 5892 5893 5895 5896 5897 5898 5900 5901 5902 5903 5904 5905 5906 5907 5907 5908 5908 5908 5908 5907 5907 5908 5908 5908 5907 5907 5907 5906 5906 5905 5905 5904 5903 5903 5903 5903 5903 5903 5904 5904 5905 5905 5906 5907 5907 5908 5908 5908 5909 5910 5913 5916 5918 5920 5920 5920 5918 5916 5915 5915 5914 5914 5913 5913 5912 5911 5911 5911 5910 5910 5910 5909 5908 5907 5906 5906 5905 5904 5903 5903 5903 5903 5902 5901
5884 5885 5886 5887 5889 5890 5891 5893 5895 5896 5897 5898 5899 5901 5902 5903 5905 5906 5906 5906 5907 5907 5907 5907 5907 5907 5908 5908 5907 5907 5907 5907 5907 5906 5906 5905 5904 5904 5904 5904 5904 5905 5905 5905 5906 5907 5908 5908 5909 5910 5910 5910 5910 5910 5917 5922 5923 5921 5921 5924 5923 5919 5917 5916 5916 5916 5915 5914 5913 5913 5912 5912 5911 5911 5910 5909 5908 5907 5907 5907 5906 5905 5904 5905 5905 5904 5902 5901
5881 5882 5883 5884 5886 5887 5888 5890 5892 5893 5894 5895 5897 5898 5900 5901 5903 5904 5905 5905 5905 5906 5906 5906 5906 5906 5907 5907 5907 5907 5907 5907 5907 5907 5906 5906 5905 5905 5905 5905 5905 5906 5906 5907 5908 5908 5909 5910 5911 5911 5912 5912 5912 5914 5921 5924 5925 5924 5923 5924 5924 5920 5918 5917 5917 5917 5916 5916 5914 5914 5913 5913 5912 5912 5911 5910 5909 5908 5908 5907 5906 5906 5905 5905 5906 5904 5903 5902
5878 5879 5880 5881 5882 5884 5885 5887 5888 5890 5891 5893 5894 5895 5897 5899 5901 5902 5903 5904 5904 5905 5905 5905 5905 5906 5906 5906 5907 5907 5907 5907 5907 5907 5907 5907 5906 5906 5906 5906 5907 5907 5907 5908 5909 5910 5910 5911 5912 5912 5911 5914 5915 5919 5923 5923 5923 5924 5922 5923 5924 5922 5919 5917 5918 5917 5916 5916 5915 5914 5914 5913 5913 5912 5911 5911 5910 5909 5908 5907 5907 5906 5905 5906 5906 5905 5904 5903
5876 5876 5877 5878 5879 5881 5882 5884 5885 5887 5889 5890 5891 5893 5894 5896 5898 5900 5901 5902 5903 5903 5904 5904 5905 5905 5905 5906 5906 5906 5907 5907 5907 5907 5907 5907 5907 5907 5907 5907 5908 5908 5908 5909 5910 5911 5912 5912 5912 5911 5914 5919 5921 5921 5921 5919 5919 5920 5920 5922 5924 5925 5922 5918 5918 5918 5917 5917 5915 5915 5914 5914 5914 5913 5912 5912 5911 5910 5908 5907 5907 5906 5906 5906 5907 5905 5904 5903
5874 5874 5874 5874 5876 5877 5879 5881 5882 5884 5886 5887 5889 5890 5891 5894 5896 5898 5899 5900 5901 5902 5903 5903 5904 5904 5904 5905 5906 5906 5906 5906 5907 5907 5907 5908 5908 5908 5908 5908 5908 5909 5910 5910 5910 5912 5913 5913 5913 5912 5916 5921 5920 5918 5917 5917 5918 5919 5920 5922 5924 5926 5923 5920 5919 5919 5918 5917 5916 5915 5915 5914 5914 5913 5913 5912 5911 5910 5910 5908 5907 5907 5906 5906 5906 5905 5904 5903
5872 5871 5871 5871 5872 5874 5876 5877 5879 5881 5883 5884 5886 5887 5889 5891 5893 5896 5897 5898 5900 5900 5901 5902 5903 5903 5903 5904 5905 5905 5906 5906 5907 5907 5907 5908 5908 5908 5908 5909 5909 5909 5910 5911 5911 5913 5914 5914 5914 5915 5916 5917 5917 5917 5918 5918 5919 5920 5920 5922 5926 5927 5923 5920 5920 5919 5919 5918 5917 5916 5916 5915 5914 5914 5914 5913 5912 5911 5910 5909 5907 5907 5907 5906 5905 5904 5905 5905
5869 5869 5869 5869 5869 5871 5872 5874 5876 5878 5879 5881 5883 5884 5887 5889 5891 5893 5895 5896 5898 5898 5899 5901 5901 5902 5903 5903 5904 5904 5905 5906 5906 5907 5907 5908 5908 5908 5909 5909 5910 5910 5910 5911 5912 5913 5914 5915 5916 5917 5916 5916 5917 5918 5918 5919 5920 5921 5920 5923 5928 5929 5925 5921 5920 5920 5920 5918 5918 5917 5916 5915 5915 5915 5915 5914 5913 5910 5910 5910 5907 5907 5907 5906 5905 5905 5905 5905
5867 5866 5866 5866 5867 5868 5869 5871 5873 5875 5877 5878 5880 5882 5885 5886 5888 5891 5893 5894 5895 5897 5898 5899 5900 5901 5902 5902 5903 5903 5904 5905 5905 5906 5907 5907 5908 5908 5909 5909 5910 5910 5910 5911 5912 5912 5915 5918 5917 5917 5916 5917 5918 5918 5919 5920 5920 5921 5921 5924 5928 5928 5926 5923 5920 5920 5920 5919 5919 5918 5917 5916 5916 5916 5915 5915 5914 5911 5910 5910 5907 5907 5907 5906 5906 5906 5904 5903
5864 5864 5864 5864 5864 5865 5866 5868 5870 5872 5874 5875 5877 5880 5882 5884 5886 5888 5890 5892 5893 5895 5896 5897 5899 5900 5900 5901 5902 5902 5903 5904 5905 5905 5906 5907 5908 5908 5908 5909 5909 5910 5910 5911 5912 5912 5915 5917 5916 5916 5917 5917 5918 5918 5919 5920 5920 5921 5923 5925 5925 5924 5924 5922 5920 5920 5920 5919 5919 5918 5918 5917 5916 5917 5916 5915 5914 5913 5911 5910 5908 5907 5907 5905 5905 5906 5905 5904
5862 5862 5861 5861 5862 5862 5863 5865 5867 5869 5871 5873 5875 5877 5879 5881 5884 5886 5887 5890 5891 5893 5894 5896 5897 5898 5899 5900 5900 5901 5902 5903 5904 5905 5906 5906 5907 5908 5908 5909 5909 5910 5911 5911 5912 5913 5914 5916 5915 5916 5917 5917 5918 5919 5920 5920 5921 5923 5924 5924 5923 5923 5922 5921 5921 5921 5921 5921 5919 5919 5919 5918 5917 5917 5918 5916 5915 5913 5912 5912 5910 5908 5907 5905 5905 5905 5904 5904
5860 5859 5859 5859 5859 5860 5861 5862 5864 5866 5868 5870 5872 5875 5877 5879 5881 5883 5885 5887 5889 5891 5893 5894 5895 5897 5898 5899 5899 5900 5901 5902 5903 5904 5905 5905 5906 5907 5908 5908 5909 5909 5910 5911 5912 5912 5914 5915 5915 5916 5917 5917 5918 5920 5921 5920 5922 5926 5925 5922 5921 5921 5921 5921 5921 5921 5922 5923 5920 5919 5920 5919 5917 5917 5917 5916 5915 5914 5913 5913 5911 5910 5908 5906 5905 5904 5902 5901
5858 5857 5857 5857 5857 5857 5858 5859 5861 5863 5865 5867 5870 5872 5875 5877 5879 5881 5883 5886 5887 5889 5891 5893 5894 5895 5896 5897 5898 5899 5900 5900 5902 5903 5904 5904 5905 5906 5907 5908 5908 5909 5910 5910 5912 5912 5913 5914 5915 5916 5917 5917 5918 5921 5923 5921 5922 5924 5922 5920 5920 5920 5920 5920 5921 5921 5922 5923 5921 5919 5919 5920 5918 5915 5915 5915 5914 5914 5913 5912 5912 5911 5908 5905 5905 5905 5902 5900
5855 5855 5855 5854 5855 5855 5856 5857 5859 5861 5863 5865 5867 5870 5872 5875 5877 5879 5881 5884 5884 5886 5889 5891 5892 5894 5895 5896 5897 5898 5898 5900 5901 5902 5903 5903 5904 5905 5906 5907 5908 5909 5909 5910 5912 5913 5913 5913 5915 5916 5916 5918 5920 5921 5921 5920 5920 5920 5918 5919 5920 5920 5920 5920 5920 5921 5922 5923 5923 5922 5920 5921 5919 5915 5913 5914 5914 5914 5913 5912 5911 5910 5908 5904 5904 5905 5903 5900
5853 5853 5852 5852 5853 5853 5854 5855 5856 5858 5860 5862 5865 5867 5870 5872 5874 5876 5879 5881 5881 5884 5887 5889 5891 5892 5893 5895 5896 5897 5898 5899 5900 5900 5902 5902 5903 5904 5905 5906 5907 5908 5909 5910 5911 5912 5912 5912 5914 5915 5915 5918 5918 5917 5917 5918 5918 5918 5918 5919 5919 5919 5920 5920 5920 5921 5921 5921 5922 5923 5923 5922 5920 5916 5914 5913 5914 5915 5913 5913 5912 5909 5906 5903 5903 5904 5904 5902
5851 5851 5850 5850 5851 5851 5852 5853 5854 5856 5858 5860 5863 5865 5867 5869 5872 5874 5877 5879 5880 5882 5886 5888 5889 5890 5892 5893 5894 5896 5897 5897 5898 5900 5901 5901 5902 5903 5904 5905 5906 5907 5908 5909 5910 5911 5911 5912 5913 5914 5914 5915 5915 5915 5916 5917 5917 5918 5918 5919 5919 5920 5920 5920 5920 5920 5920 5921 5921 5922 5923 5923 5920 5915 5912 5910 5912 5915 5915 5914 5913 5910 5906 5902 5901 5901 5902 5901
5849 5849 5848 5848 5849 5849 5850 5851 5852 5854 5856 5858 5860 5862 5865 5867 5869 5872 5875 5878 5879 5881 5884 5886 5887 5889 5891 5892 5893 5895 5895 5896 5897 5899 5900 5900 5901 5902 5903 5904 5905 5906 5907 5908 5910 5910 5911 5912 5912 5913 5914 5914 5915 5916 5917 5917 5918 5918 5918 5918 5920 5921 5921 5921 5921 5920 5920 5921 5921 5922 5922 5922 5919 5914 5910 5909 5910 5913 5913 5913 5912 5910 5906 5903 5901 5900 5901 5901
5846 5846 5846 5846 5847 5847 5848 5849 5850 5852 5853 5856 5858 5860 5862 5864 5867 5871 5874 5876 5878 5880 5882 5884 5885 5887 5889 5890 5892 5893 5894 5895 5896 5897 5898 5899 5900 5902 5903 5904 5905 5906 5907 5909 5910 5910 5911 5911 5912 5912 5913 5913 5915 5916 5916 5917 5918 5918 5919 5919 5920 5922 5922 5922 5921 5920 5920 5920 5921 5922 5920 5919 5917 5912 5910 5911 5910 5909 5909 5909 5909 5908 5908 5906 5904 5903 5902 5900
5844 5844 5844 5844 5845 5845 5846 5847 5849 5850 5851 5853 5855 5857 5860 5862 5865 5870 5873 5876 5878 5880 5880 5881 5884 5886 5888 5889 5890 5891 5892 5893 5895 5896 5897 5898 5899 5900 5902 5903 5904 5905 5907 5908 5910 5911 5911 5910 5911 5912 5911 5912 5914 5914 5915 5918 5918 5918 5920 5920 5920 5921 5922 5921 5920 5920 5920 5919 5920 5920 5918 5918 5916 5909 5908 5910 5909 5907 5907 5907 5906 5906 5907 5906 5905 5903 5901 5897
5842 5842 5842 5842 5843 5843 5844 5845 5847 5848 5849 5851 5853 5855 5858 5860 5865 5869 5872 5875 5877 5879 5880 5880 5882 5884 5886 5887 5888 5890 5891 5892 5893 5895 5895 5896 5898 5899 5900 5902 5903 5904 5906 5908 5911 5914 5915 5913 5911 5911 5911 5911 5912 5913 5913 5915 5917 5918 5919 5919 5919 5919 5919 5920 5920 5919 5920 5920 5919 5919 5917 5916 5914 5909 5907 5909 5908 5907 5906 5905 5905 5905 5905 5903 5901 5900 5898 5894
5840 5840 5840 5840 5841 5841 5842 5843 5845 5846 5847 5849 5850 5853 5855 5860 5865 5868 5872 5875 5878 5880 5879 5877 5880 5883 5884 5886 5887 5888 5890 5891 5892 5893 5894 5895 5897 5898 5899 5901 5902 5903 5904 5907 5910 5914 5917 5916 5911 5908 5910 5910 5911 5911 5910 5913 5916 5916 5916 5917 5917 5916 5916 5917 5918 5917 5918 5918 5917 5918 5917 5913 5911 5909 5908 5908 5908 5907 5906 5905 5904 5903 5902 5900 5898 5896 5895 5893
5838 5838 5838 5838 5839 5839 5840 5841 5842 5844 5845 5846 5848 5850 5854 5859 5863 5866 5869 5873 5876 5878 5878 5877 5878 5881 5883 5884 5886 5887 5889 5890 5890 5891 5893 5894 5896 5896 5898 5900 5900 5902 5903 5905 5909 5911 5914 5914 5908 5906 5909 5909 5908 5909 5909 5912 5913 5912 5914 5916 5914 5912 5914 5914 5914 5914 5915 5915 5915 5916 5915 5911 5908 5906 5906 5907 5907 5906 5905 5905 5904 5902 5900 5898 5897 5896 5894 5892
5835 5836 5836 5836 5837 5837 5838 5839 5840 5841 5843 5844 5846 5849 5854 5857 5860 5863 5865 5867 5869 5873 5876 5877 5877 5880 5882 5883 5885 5886 5887 5889 5889 5890 5892 5893 5894 5895 5896 5899 5899 5901 5902 5902 5905 5908 5909 5910 5906 5905 5909 5907 5905 5907 5909 5909 5910 5910 5913 5913 5909 5910 5913 5912 5912 5913 5913 5914 5914 5915 5915 5911 5905 5902 5901 5902 5902 5902 5903 5903 5903 5901 5898 5896 5896 5896 5894 5892
5833 5833 5834 5834 5834 5835 5836 5837 5838 5839 5840 5842 5845 5848 5852 5853 5854 5858 5861 5863 5866 5870 5874 5877 5878 5880 5882 5884 5886 5885 5886 5888 5888 5889 5891 5892 5893 5894 5896 5899 5899 5899 5900 5900 5902 5903 5904 5906 5905 5905 5908 5906 5903 5906 5908 5908 5909 5909 5910 5908 5908 5911 5913 5911 5911 5912 5912 5912 5912 5913 5914 5910 5905 5901 5899 5899 5898 5898 5902 5902 5900 5899 5896 5894 5893 5894 5893 5890
5830 5831 5831 5832 5832 5833 5834 5835 5836 5837 5838 5840 5844 5847 5850 5851 5851 5853 5856 5859 5863 5866 5870 5875 5878 5880 5880 5884 5888 5886 5885 5888 5888 5888 5891 5893 5893 5894 5896 5898 5896 5895 5897 5899 5900 5900 5901 5904 5905 5906 5906 5904 5903 5905 5906 5908 5908 5908 5907 5908 5909 5910 5910 5910 5910 5909 5909 5910 5910 5911 5911 5906 5902 5901 5898 5898 5897 5894 5896 5899 5898 5895 5893 5891 5890 5889 5890 5888
5828 5828 5829 5830 5831 5831 5832 5833 5834 5836 5837 5839 5842 5845 5848 5850 5852 5852 5854 5858 5862 5864 5867 5872 5876 5879 5880 5882 5887 5887 5885 5887 5888 5889 5890 5892 5892 5892 5894 5895 5893 5893 5895 5896 5897 5898 5900 5901 5904 5904 5903 5903 5904 5904 5905 5907 5907 5906 5906 5907 5908 5908 5908 5908 5908 5908 5907 5908 5908 5908 5908 5902 5898 5898 5897 5896 5895 5891 5889 5891 5893 5892 5889 5888 5887 5885 5885 5883
5825 5826 5827 5828 5829 5829 5831 5832 5833 5834 5836 5838 5840 5842 5844 5846 5849 5852 5853 5856 5859 5861 5863 5866 5870 5876 5879 5880 5884 5886 5886 5886 5888 5889 5890 5890 5889 5890 5892 5892 5891 5891 5892 5894 5895 5896 5898 5899 5901 5902 5902 5903 5904 5902 5901 5903 5902 5901 5902 5903 5904 5905 5905 5905 5906 5907 5906 5906 5906 5906 5906 5899 5893 5895 5895 5894 5893 5889 5886 5885 5887 5888 5887 5886 5885 5883 5881 5878
5823 5824 5825 5827 5827 5828 5829 5830 5831 5832 5834 5836 5838 5841 5843 5844 5845 5847 5849 5852 5856 5858 5861 5863 5864 5869 5876 5878 5879 5883 5885 5885 5886 5888 5890 5890 5889 5889 5889 5888 5888 5889 5889 5893 5894 5894 5895 5896 5897 5899 5900 5901 5901 5900 5898 5898 5899 5899 5899 5900 5901 5902 5903 5902 5903 5903 5902 5902 5902 5903 5902 5896 5891 5893 5894 5892 5890 5887 5886 5884 5883 5884 5883 5882 5881 5879 5877 5875
5821 5822 5824 5825 5825 5826 5827 5828 5830 5831 5833 5835 5837 5839 5841 5842 5842 5843 5846 5851 5855 5858 5860 5863 5864 5866 5872 5876 5877 5879 5882 5883 5884 5886 5889 5889 5887 5886 5884 5883 5887 5888 5888 5892 5892 5890 5892 5893 5893 5895 5896 5896 5898 5899 5897 5895 5897 5897 5897 5899 5899 5899 5900 5899 5898 5898 5898 5898 5898 5898 5898 5892 5889 5890 5889 5889 5889 5887 5886 5884 5882 5880 5878 5877 5877 5875 5874 5873
5819 5821 5822 5822 5823 5824 5825 5827 5828 5829 5830 5832 5835 5836 5837 5838 5840 5843 5847 5850 5853 5856 5858 5860 5863 5866 5869 5872 5875 5877 5880 5881 5883 5885 5888 5886 5884 5882 5881 5881 5885 5886 5886 5888 5887 5887 5890 5891 5891 5892 5893 5894 5896 5897 5896 5894 5894 5894 5896 5896 5896 5895 5896 5895 5895 5895 5895 5895 5895 5895 5893 5888 5886 5887 5885 5884 5885 5885 5883 5882 5880 5877 5874 5872 5872 5871 5871 5870
5817 5818 5818 5819 5821 5822 5823 5825 5825 5826 5828 5830 5832 5834 5835 5837 5839 5842 5845 5848 5851 5854 5856 5858 5862 5865 5867 5870 5873 5876 5878 5878 5879 5882 5883 5882 5879 5878 5879 5881 5883 5882 5882 5883 5884 5886 5888 5887 5887 5889 5891 5892 5893 5892 5892 5891 5891 5892 5893 5893 5894 5894 5892 5890 5892 5893 5892 5892 5891 5891 5890 5886 5882 5882 5882 5880 5880 5880 5879 5877 5876 5875 5872 5870 5868 5866 5866 5865
5814 5814 5815 5817 5818 5820 5821 5823 5824 5826 5827 5828 5830 5832 5834 5836 5838 5841 5844 5846 5849 5850 5852 5856 5862 5864 5866 5869 5871 5873 5875 5875 5875 5876 5878 5876 5874 5875 5876 5878 5879 5878 5879 5881 5883 5884 5885 5884 5885 5886 5886 5889 5889 5888 5888 5888 5889 5890 5890 5890 5891 5892 5890 5888 5888 5889 5889 5889 5888 5887 5886 5885 5881 5878 5876 5876 5875 5875 5875 5874 5873 5872 5870 5868 5866 5864 5862 5861
5810 5811 5813 5814 5815 5817 5819 5821 5822 5824 5825 5826 5828 5830 5832 5834 5837 5840 5843 5845 5847 5848 5850 5854 5859 5863 5865 5867 5868 5869 5871 5872 5872 5872 5874 5873 5870 5872 5875 5875 5876 5877 5878 5879 5879 5879 5881 5881 5882 5883 5883 5885 5886 5886 5886 5886 5886 5886 5886 5886 5887 5887 5888 5886 5885 5885 5885 5886 5885 5884 5882 5882 5880 5877 5874 5871 5870 5869 5870 5870 5869 5867 5866 5864 5863 5861 5858 5856
5808 5809 5811 5812 5813 5815 5816 5817 5818 5820 5821 5823 5825 5827 5830 5832 5835 5837 5840 5842 5844 5846 5849 5851 5854 5859 5863 5864 5865 5866 5867 5868 5869 5869 5871 5869 5866 5869 5873 5872 5873 5875 5876 5876 5876 5876 5878 5878 5879 5880 5880 5881 5883 5883 5883 5883 5883 5882 5882 5883 5883 5883 5884 5884 5882 5881 5880 5881 5882 5881 5879 5877 5877 5875 5872 5870 5868 5866 5865 5865 5864 5862 5861 5860 5859 5856 5853 5851
5806 5807 5809 5811 5812 5813 5814 5815 5816 5818 5820 5821 5823 5826 5828 5830 5832 5835 5837 5840 5842 5843 5846 5849 5850 5854 5860 5863 5864 5864 5864 5865 5866 5866 5867 5866 5863 5866 5870 5870 5870 5872 5873 5873 5873 5873 5875 5876 5876 5876 5877 5878 5879 5879 5879 5879 5880 5879 5879 5879 5880 5880 5880 5880 5880 5879 5877 5876 5877 5877 5876 5874 5872 5871 5869 5868 5867 5864 5861 5860 5859 5858 5857 5856 5854 5852 5849 5847
5804 5805 5806 5808 5811 5812 5813 5815 5816 5817 5819 5820 5822 5824 5827 5829 5831 5833 5835 5837 5839 5841 5844 5846 5849 5851 5855 5859 5860 5860 5860 5860 5861 5861 5862 5863 5862 5864 5867 5867 5867 5868 5869 5870 5870 5870 5872 5874 5873 5873 5874 5875 5876 5876 5876 5876 5876 5876 5875 5876 5877 5877 5876 5876 5875 5874 5873 5873 5873 5872 5872 5869 5867 5867 5866 5865 5864 5861 5858 5856 5854 5853 5852 5851 5850 5848 5845 5843
5801 5802 5804 5806 5807 5809 5811 5813 5814 5815 5817 5819 5821 5822 5824 5827 5828 5830 5832 5833 5835 5839 5841 5844 5847 5849 5851 5853 5855 5856 5856 5856 5857 5858 5858 5860 5862 5862 5863 5863 5864 5865 5866 5868 5867 5867 5868 5870 5871 5871 5871 5871 5873 5873 5873 5873 5872 5871 5872 5872 5872 5872 5873 5872 5871 5869 5869 5869 5869 5869 5868 5864 5862 5862 5862 5861 5859 5857 5855 5853 5850 5848 5847 5845 5844 5843 5841 5839
5798 5800 5801 5803 5804 5806 5808 5810 5812 5813 5815 5816 5818 5819 5821 5823 5824 5825 5827 5829 5832 5835 5838 5841 5845 5846 5847 5849 5851 5852 5852 5853 5854 5855 5856 5858 5860 5859 5859 5860 5862 5862 5863 5865 5865 5865 5864 5866 5868 5868 5868 5868 5869 5870 5870 5869 5868 5868 5868 5868 5868 5868 5869 5869 5867 5865 5864 5865 5865 5865 5863 5860 5858 5858 5857 5856 5854 5853 5851 5849 5847 5844 5842 5841 5840 5838 5837 5835